User: anonymous   Login
Location: Sungai Jaoh
(2.9167°N, 113.9167°E)
Time: 17:21:51
(UTC+00:00)
Language:

METEOR 2-8 DEB - Orbit

View from above orbital plane
View from above orbital plane
View from above satellite
View from above satellite

Ground track
Ground track

The orbit data is extracted from the following two-line orbital elements,

1 36325U 82025K   21172.10783401  .00001097  00000-0  63868-3 0  9994
2 36325  82.5256 311.8055 0025056 245.5659 114.2900 14.07650333394933
Epoch (UTC): 21 June 2021 02:35:16
Eccentricity: 0.0025056
inclination: 82.5256°
perigee height: 849 km
apogee height: 885 km
right ascension of ascending node: 311.8055°
argument of perigee: 245.5659°
revolutions per day: 14.07650333
mean anomaly at epoch: 114.2900°
orbit number at epoch: 39493

The dashed part of the orbit path shows where the satellite is in the earth's shadow,  

DLR